Stations météo

réclame
Mon MeteoGroup
Aurillac, France (7549): Température de l'air & dewpoint: 09.08.2018 01:00:00 - 15.08.2018 01:00:00 (CEST)Aurillac, France (7549): Température de l'air 5cm: 09.08.2018 01:00:00 - 15.08.2018 01:00:00 (CEST)Aurillac, France (7549): Température de l'air -20cm & Température de l'air -100cm: 09.08.2018 01:00:00 - 15.08.2018 01:00:00 (CEST)Aurillac, France (7549): Vitesse du vent & gusts: 09.08.2018 01:00:00 - 15.08.2018 01:00:00 (CEST)Aurillac, France (7549): Direction du vent: 09.08.2018 01:00:00 - 15.08.2018 01:00:00 (CEST)Aurillac, France (7549): reduced air pressure: 09.08.2018 01:00:00 - 15.08.2018 01:00:00 (CEST)Aurillac, France (7549): visibility: 09.08.2018 01:00:00 - 15.08.2018 01:00:00 (CEST)Aurillac, France (7549): Ensoleillement: 09.08.2018 01:00:00 - 15.08.2018 01:00:00 (CEST)Aurillac, France (7549): Quantités de précipitations: 09.08.2018 01:00:00 - 15.08.2018 01:00:00 (CEST)
Date & Time tt [°C] td [°C] tt 5cm [°C] tt -20cm [°C] tt -100cm [°C] ff [km/h] ff [knt] fx [km/h] fx [knt] dd ppp [hPa] vv [km] sd [min] rr [mm]
15.08.2018 01:00:00 13,5 12,1 9,1 20,3 18,1 4 2 6 3 NNE 1021,8 53 0 0,0
15.08.2018 00:00:00 14,3 12,0 10,6 20,3 18,1 3 1 8 5 E 1021,7 57 0 0,0
14.08.2018 23:00:00 16,1 12,6 12,4 20,3 18,1 5 3 9 5 WNW 1021,3 19 0 0,0
14.08.2018 22:00:00 17,3 12,2 13,7 20,3 18,1 3 2 20 11 NW 1020,4 60 0 0,0
14.08.2018 21:00:00 19,2 12,9 18,0 20,3 18,2 12 7 31 17 NW 1019,2 60 35 0,0
14.08.2018 20:00:00 20,8 13,0 20,6 20,2 18,2 21 12 36 20 NW 1018,3 45 24 0,0
14.08.2018 19:00:00 20,2 13,6 20,5 20,2 18,2 17 9 31 17 WNW 1018,5 57 9 0,0
14.08.2018 18:00:00 21,5 14,2 20,6 20,1 18,1 21 12 32 17 WNW 1018,2 20 15 0,0
14.08.2018 17:00:00 20,0 13,2 20,5 20,1 18,1 16 9 31 17 NW 1018,6 20 2 0,0
14.08.2018 16:00:00 20,1 13,5 21,9 20,0 18,1 22 12 35 19 WNW 1018,4 59 33 0,0
14.08.2018 15:00:00 20,1 14,0 22,4 20,0 18,1 23 13 31 17 WNW 1018,5 20 25 0,0
14.08.2018 14:00:00 19,5 14,5 20,6 20,1 18,2 15 8 25 14 NW 1018,7 58 16 0,0
14.08.2018 13:00:00 18,2 13,5 18,6 20,1 18,2 13 7 29 16 NW 1019,1 59 7 0,0
14.08.2018 12:00:00 17,3 14,0 20,3 20,1 18,2 18 10 34 18 WNW 1019,2 60 19 0,0
14.08.2018 11:00:00 16,7 14,3 16,8 20,2 18,2 10 5 23 12 NW 1019,4 53 2 0,0
14.08.2018 10:00:00 15,7 13,9 15,6 20,2 18,1 14 8 24 13 NW 1019,0 19 9 0,0
14.08.2018 09:00:00 15,0 14,2 15,4 20,3 18,2 11 6 19 10 NW 1018,8 44 0 0,0
14.08.2018 08:00:00 14,7 14,2 14,3 20,4 18,2 5 3 9 5 NW 1018,5 20 0 0,0
14.08.2018 07:00:00 14,5 14,0 14,1 20,5 18,1 6 4 16 9 NW 1017,9 9 0 0,0
14.08.2018 06:00:00 14,7 14,2 14,6 20,5 18,2 11 6 26 14 WNW 1017,2 20 0 0,0
14.08.2018 05:00:00 14,8 14,3 14,8 20,6 18,2 13 7 22 12 W 1016,8 13 0 0,2
14.08.2018 04:00:00 15,3 15,0 15,3 20,6 18,1 9 5 18 10 W 1016,9 13 0 0,2
14.08.2018 03:00:00 15,4 14,9 15,4 20,7 18,2 12 7 19 11 WNW 1016,8 11 0 1,8
14.08.2018 02:00:00 15,9 15,6 15,8 20,8 18,2 11 6 21 12 WNW 1016,8 15 0 0,4
14.08.2018 01:00:00 16,0 15,7 15,9 20,8 18,2 6 4 14 8 NW 1016,8 14 0 0,2
14.08.2018 00:00:00 15,8 15,5 15,5 20,9 18,2 4 2 7 4 WSW 1016,5 19 0 0,0
13.08.2018 23:00:00 15,5 15,2 15,3 20,9 18,2 0 0 7 4 N 1016,4 31 0 0,6
13.08.2018 22:00:00 15,5 15,0 15,3 20,9 18,2 0 0 7 4 N 1016,2 1,7 0 4,4
13.08.2018 21:00:00 15,5 14,5 15,3 20,9 18,2 2 1 11 6 NE 1015,7 16 0 0,4
13.08.2018 20:00:00 16,1 14,3 15,2 20,9 18,2 12 7 41 22 WNW 1015,3 10 5 2,7
13.08.2018 19:00:00 18,6 15,1 20,4 20,9 18,2 12 6 23 12 SSW 1014,0 60 25 0,0
13.08.2018 18:00:00 18,1 15,5 18,2 20,9 18,2 10 6 19 11 SSW 1014,2 52 0 0,0
13.08.2018 17:00:00 17,5 15,5 17,9 20,9 18,2 14 8 23 12 SSW 1014,6 10 0 0,2
13.08.2018 16:00:00 19,7 14,3 22,3 20,9 18,2 14 8 24 13 SW 1014,4 57 11 0,0
13.08.2018 15:00:00 19,2 15,5 22,3 21,0 18,2 10 5 16 9 SSW 1014,8 57 3 0,0
13.08.2018 14:00:00 19,7 16,2 17,6 21,0 18,2 4 2 16 9 W 1014,8 20 10 0,2
13.08.2018 13:00:00 18,1 15,4 18,7 21,1 18,2 10 5 15 8 SW 1015,4 51 0 0,0
13.08.2018 12:00:00 17,9 15,0 17,4 21,2 18,2 5 3 11 6 SW 1015,2 57 0 0,0
13.08.2018 11:00:00 16,8 16,2 16,9 21,3 18,2 6 4 11 6 SW 1015,2 4,0 0 1,8
13.08.2018 10:00:00 16,9 16,1 16,7 21,4 18,2 7 4 11 6 SW 1014,7 36 0 0,8
13.08.2018 09:00:00 16,4 16,1 16,2 21,5 18,2 5 3 7 4 SW 1014,4 6 0 0,2
13.08.2018 08:00:00 15,8 15,6 13,4 21,6 18,2 0 0 6 3 N 1014,2 11 0 0,0
13.08.2018 07:00:00 15,1 14,8 12,2 21,7 18,2 2 1 7 4 SSE 1013,8 0,2 0 0,0
13.08.2018 06:00:00 16,0 15,7 14,7 21,7 18,2 6 3 10 6 E 1013,2 7 0 0,0
13.08.2018 05:00:00 16,3 15,8 15,5 21,8 18,2 2 1 7 4 SSE 1014,1 14 0 0,0
13.08.2018 04:00:00 16,5 15,9 16,1 21,8 18,2 3 2 10 5 S 1014,4 14 0 0,0
13.08.2018 03:00:00 16,8 16,0 16,1 21,9 18,2 7 4 18 10 NW 1014,7 19 0 0,6
13.08.2018 02:00:00 17,4 15,7 16,3 21,9 18,2 5 3 16 9 N 1015,5 11 0 1,0
13.08.2018 01:00:00 18,3 15,2 17,7 21,9 18,2 10 5 29 15 E 1015,0 38 0 0,0
13.08.2018 00:00:00 18,3 16,1 18,1 21,8 18,2 19 10 35 19 E 1013,8 40 0 0,0
12.08.2018 23:00:00 19,7 16,5 18,9 21,7 18,2 27 15 63 34 S 1013,2 31 0 0,0
12.08.2018 22:00:00 23,8 14,2 19,6 21,6 18,2 6 4 23 13 S 1011,4 59 0 0,0
12.08.2018 21:00:00 22,9 16,9 19,5 21,4 18,2 11 6 27 15 ESE 1010,9 43 7 1,2
12.08.2018 20:00:00 29,1 14,9 22,5 21,3 18,2 6 4 23 12 SSW 1008,7 22 42 0,2
12.08.2018 19:00:00 30,1 12,5 31,2 21,0 18,2 10 5 24 13 SSW 1008,7 56 51 0,0
12.08.2018 18:00:00 31,4 13,2 33,0 20,9 18,2 13 7 30 16 SW 1009,1 20 50 0,0
12.08.2018 17:00:00 30,8 13,6 34,3 20,7 18,2 13 7 27 15 SW 1010,1 19 57 0,0
12.08.2018 16:00:00 30,2 14,3 33,4 20,6 18,2 11 6 27 15 WSW 1011,2 19 48 0,0
12.08.2018 15:00:00 29,6 12,1 38,3 20,6 18,2 13 7 26 14 SSW 1012,1 57 60 0,0
12.08.2018 14:00:00 29,3 12,3 36,9 20,5 18,2 10 5 23 13 S 1012,6 20 60 0,0
12.08.2018 13:00:00 27,1 11,9 35,2 20,6 18,2 9 5 23 12 SSW 1013,9 52 60 0,0
12.08.2018 12:00:00 26,1 10,7 32,6 20,6 18,2 10 5 19 11 SSE 1014,6 60 60 0,0
12.08.2018 11:00:00 24,9 8,8 29,2 20,7 18,2 10 6 19 10 ESE 1015,0 20 60 0,0
12.08.2018 10:00:00 22,3 9,5 22,9 20,8 18,2 10 5 18 10 E 1015,8 60 60 0,0
12.08.2018 09:00:00 18,5 8,7 16,2 21,0 18,2 13 7 19 11 E 1016,9 60 60 0,0
12.08.2018 08:00:00 15,0 8,2 11,1 21,1 18,2 12 7 20 11 E 1018,1 60 46 0,0
12.08.2018 07:00:00 12,7 8,0 9,3 21,2 18,2 14 8 19 11 E 1018,5 60 0 0,0
12.08.2018 06:00:00 12,8 8,3 9,6 21,3 18,2 13 7 20 11 E 1018,6 60 0 0,0
12.08.2018 05:00:00 12,4 8,5 8,8 21,4 18,2 13 7 15 8 E 1019,0 60 0 0,0
12.08.2018 04:00:00 12,0 8,7 8,8 21,4 18,2 11 6 14 8 E 1019,6 60 0 0,0
12.08.2018 03:00:00 12,7 9,0 8,8 21,5 18,2 10 5 11 6 E 1019,7 60 0 0,0
12.08.2018 02:00:00 12,6 9,1 9,0 21,5 18,2 8 5 10 6 E 1020,3 60 0 0,0
12.08.2018 01:00:00 13,3 9,0 9,4 21,5 18,2 8 5 10 6 E 1020,6 60 0 0,0
12.08.2018 00:00:00 14,7 9,5 10,0 21,4 18,2 7 4 10 5 ENE 1020,5 60 0 0,0
11.08.2018 23:00:00 16,9 9,6 10,6 21,3 18,2 3 2 10 6 ESE 1020,2 60 0 0,0
11.08.2018 22:00:00 19,8 9,4 13,4 21,2 18,2 4 2 5 3 NW 1019,1 60 0 0,0
11.08.2018 21:00:00 23,0 8,7 17,5 21,0 18,2 4 2 11 6 NNW 1018,1 60 23 0,0
11.08.2018 20:00:00 25,2 7,3 27,5 20,8 18,2 9 5 18 10 NNW 1017,9 60 60 0,0
11.08.2018 19:00:00 26,3 7,8 31,7 20,8 18,3 10 6 19 10 W 1018,0 54 60 0,0
11.08.2018 18:00:00 26,1 6,7 33,2 20,6 18,2 9 5 19 10 WNW 1018,6 51 60 0,0
11.08.2018 17:00:00 26,1 7,2 33,3 20,5 18,3 8 4 22 12 N 1019,1 45 60 0,0
11.08.2018 16:00:00 25,5 7,1 33,4 20,4 18,2 8 5 21 11 N 1019,9 60 60 0,0
11.08.2018 15:00:00 24,7 7,3 33,9 20,3 18,2 8 5 16 9 W 1020,8 20 60 0,0
11.08.2018 14:00:00 23,9 5,7 31,7 20,3 18,2 8 5 24 13 WNW 1021,5 20 60 0,0
11.08.2018 13:00:00 22,8 6,5 30,7 20,4 18,2 6 3 20 11 W 1022,3 20 60 0,0
11.08.2018 12:00:00 21,8 6,5 29,1 20,5 18,2 6 4 15 8 W 1023,0 54 60 0,0
11.08.2018 11:00:00 19,9 6,9 24,8 20,6 18,2 5 3 10 6 W 1023,5 59 60 0,0
11.08.2018 10:00:00 17,2 7,8 19,5 20,7 18,2 3 2 7 4 WSW 1024,2 58 60 0,0
11.08.2018 09:00:00 13,4 8,5 12,3 20,8 18,2 0 0 6 3 N 1025,4 60 60 0,0
11.08.2018 08:00:00 10,9 6,8 4,5 20,9 18,2 3 2 7 4 ESE 1026,2 54 47 0,0
11.08.2018 07:00:00 7,4 6,0 2,9 21,1 18,2 3 2 6 3 SE 1026,8 56 0 0,0
11.08.2018 06:00:00 7,8 6,4 3,0 21,2 18,2 2 1 7 4 E 1026,7 58 0 0,0
11.08.2018 05:00:00 8,1 6,4 4,7 21,3 18,2 5 3 9 5 E 1026,9 51 0 0,0
11.08.2018 04:00:00 8,5 6,8 4,9 21,4 18,2 7 4 9 5 ESE 1027,3 51 0 0,0
11.08.2018 03:00:00 9,4 7,2 6,0 21,4 18,2 6 3 9 5 E 1026,9 57 0 0,0
11.08.2018 02:00:00 10,4 7,6 5,5 21,5 18,2 5 3 9 5 NE 1026,8 58 0 0,0
11.08.2018 01:00:00 12,5 7,4 6,5 21,5 18,2 6 4 9 5 NNE 1026,5 60 0 0,0
11.08.2018 00:00:00 14,0 7,5 8,7 21,4 18,2 5 3 8 5 NNE 1025,7 57 0 0,0
10.08.2018 23:00:00 15,5 7,5 8,1 21,4 18,2 4 2 7 4 NNE 1025,2 60 0 0,0
10.08.2018 22:00:00 16,9 6,7 10,1 21,3 18,2 3 1 11 6 WNW 1024,5 55 0 0,0
10.08.2018 21:00:00 19,3 6,7 16,4 21,2 18,2 7 4 16 8 WNW 1023,3 60 25 0,0
10.08.2018 20:00:00 21,6 5,5 23,9 21,0 18,2 11 6 19 11 WNW 1022,6 59 60 0,0
10.08.2018 19:00:00 22,3 6,1 26,8 20,9 18,3 12 6 22 12 WNW 1022,3 59 60 0,0
10.08.2018 18:00:00 22,8 6,9 28,8 20,7 18,2 13 7 26 14 WNW 1022,4 60 60 0,0
10.08.2018 17:00:00 22,6 5,9 30,0 20,6 18,2 11 6 27 14 WSW 1022,5 20 60 0,0
10.08.2018 16:00:00 22,6 5,5 30,1 20,5 18,2 16 9 31 17 WNW 1022,8 19 60 0,0
10.08.2018 15:00:00 22,1 6,3 28,9 20,5 18,2 17 9 30 16 WNW 1023,4 20 60 0,0
10.08.2018 14:00:00 21,3 3,5 29,8 20,5 18,2 15 8 29 16 WNW 1023,7 60 60 0,0
10.08.2018 13:00:00 20,5 7,5 28,7 20,6 18,2 11 6 28 15 W 1024,2 20 60 0,0
10.08.2018 12:00:00 19,1 7,2 27,0 20,6 18,2 8 4 16 9 W 1024,5 60 60 0,0
10.08.2018 11:00:00 18,0 9,9 24,5 20,7 18,2 5 3 18 10 NNW 1024,8 53 60 0,0
10.08.2018 10:00:00 16,4 11,8 19,8 20,8 18,2 4 2 9 5 W 1025,3 19 60 0,0
10.08.2018 09:00:00 14,4 11,5 12,3 21,0 18,2 0 0 6 4 N 1025,6 19 60 0,0
10.08.2018 08:00:00 10,7 10,7 6,0 21,1 18,2 4 2 6 3 E 1026,2 5 51 0,0
10.08.2018 07:00:00 8,8 8,7 5,8 21,2 18,2 5 3 7 4 ENE 1026,5 0,2 0 0,0
10.08.2018 06:00:00 9,8 9,7 7,0 21,3 18,2 4 2 8 4 E 1025,9 0,2 0 0,0
10.08.2018 05:00:00 10,9 10,7 5,7 21,4 18,2 3 2 6 3 ENE 1025,5 0,9 0 0,0
10.08.2018 04:00:00 11,3 10,8 6,1 21,5 18,2 4 2 4 2 ENE 1025,3 0,5 0 0,0
10.08.2018 03:00:00 11,7 10,8 6,6 21,6 18,2 0 0 10 5 N 1025,2 0,4 0 0,2
10.08.2018 02:00:00 12,9 12,1 7,7 21,6 18,2 6 3 10 5 NNE 1024,7 31 0 0,0
10.08.2018 01:00:00 13,4 12,5 8,0 21,7 18,2 0 0 5 3 N 1024,7 30 0 0,0
10.08.2018 00:00:00 14,4 12,6 10,9 21,7 18,2 4 2 6 4 WNW 1023,7 41 0 0,0
09.08.2018 23:00:00 15,4 13,2 11,6 21,8 18,2 6 3 8 5 WSW 1022,8 46 0 0,0
09.08.2018 22:00:00 16,4 13,1 14,7 21,8 18,2 4 2 9 5 W 1021,8 58 0 0,0
09.08.2018 21:00:00 17,0 12,7 16,0 21,8 18,2 6 3 11 6 W 1020,8 60 32 0,0
09.08.2018 20:00:00 17,9 12,1 18,2 21,8 18,2 8 5 14 7 W 1020,4 60 37 0,0
09.08.2018 19:00:00 17,7 11,9 17,9 21,8 18,2 9 5 19 10 WNW 1020,1 59 0 0,0
09.08.2018 18:00:00 18,1 12,8 18,8 21,9 18,2 12 6 27 15 NNW 1019,7 60 13 0,0
09.08.2018 17:00:00 21,0 12,9 21,9 21,9 18,1 16 9 25 14 W 1018,0 56 28 0,0
09.08.2018 16:00:00 18,5 13,8 16,4 22,1 18,2 13 7 22 12 WNW 1018,7 20 5 0,0
09.08.2018 15:00:00 17,2 13,1 17,6 22,1 18,2 13 7 33 18 W 1018,5 20 0 0,0
09.08.2018 14:00:00 17,3 14,4 16,9 22,2 18,1 16 9 26 14 WNW 1017,5 41 0 0,0
09.08.2018 13:00:00 17,8 14,7 17,9 22,3 18,2 11 6 29 16 W 1017,0 59 0 0,0
09.08.2018 12:00:00 17,5 15,8 16,5 22,3 18,2 10 6 24 13 W 1016,2 54 0 0,0
09.08.2018 11:00:00 16,9 15,4 16,5 22,4 18,2 15 8 25 14 W 1015,1 53 0 0,4
09.08.2018 10:00:00 18,3 14,6 17,6 22,5 18,1 6 3 14 8 WNW 1013,5 54 0 0,0
09.08.2018 09:00:00 18,3 15,2 18,9 22,5 18,2 11 6 36 19 NW 1012,8 18 0 0,0
09.08.2018 08:00:00 22,2 18,0 21,2 22,6 18,1 14 7 32 17 WSW 1010,4 25 5 0,0
09.08.2018 07:00:00 22,2 17,8 20,7 22,6 18,1 18 10 38 20 SE 1008,7 20 0 0,0
09.08.2018 06:00:00 21,8 17,2 20,5 22,7 18,1 18 10 34 18 ESE 1008,3 26 0 0,0
09.08.2018 05:00:00 21,9 17,1 21,0 22,8 18,1 22 12 34 19 ESE 1008,5 29 0 0,0
09.08.2018 04:00:00 21,9 17,1 21,1 22,8 18,1 17 9 34 18 ESE 1009,2 20 0 0,0
09.08.2018 03:00:00 22,0 16,9 21,1 22,8 18,1 20 11 35 19 SE 1009,7 29 0 -
09.08.2018 02:00:00 21,9 17,1 21,3 22,8 18,1 19 11 34 18 SE 1010,7 20 0 0,0
09.08.2018 01:00:00 22,1 17,5 20,6 22,8 18,1 19 10 34 18 SE 1010,9 20 0 0,0

tt = Température de l'air
td = dewpoint
tt 5cm = Température de l'air 5cm
tt -20cm = Température de l'air -20cm
tt -100cm = Température de l'air -100cm
ff = Vitesse du vent
fx = gusts
dd = Direction du vent
ppp = reduced air pressure
vv = visibility
sd = Ensoleillement
rr = Quantités de précipitations

stations d'obs. à proximité